Date,TemperatureHighF,TemperatureAvgF,TemperatureLowF,DewpointHighF,DewpointAvgF,DewpointLowF,HumidityHigh,HumidityAvg,HumidityLow,PressureMaxIn,PressureMinIn,WindSpeedMaxMPH,WindSpeedAvgMPH,GustSpeedMaxMPH,PrecipitationSumIn
2013-1-1,45.9,37.3,32.9,32.0,32.0,32.0,37,20,15,30.93,30.84,8,3,10,0.00
2013-1-2,49.8,38.6,29.1,32.0,32.0,32.0,18,16,14,30.90,30.81,9,3,15,0.00
2013-1-3,51.6,40.8,34.7,32.0,32.0,32.0,17,15,14,30.93,30.81,8,3,12,0.00
2013-1-4,52.9,41.3,33.6,32.0,32.0,32.0,16,15,13,30.99,30.90,6,0,6,0.00
2013-1-5,51.6,43.2,36.3,32.0,32.0,32.0,16,15,13,30.99,30.81,7,1,9,0.00
2013-1-6,59.5,49.7,39.7,59.0,41.3,32.0,97,67,15,30.81,30.69,16,8,20,0.00
2013-1-7,55.0,46.3,39.4,42.8,34.1,32.0,79,36,13,30.84,30.72,9,3,10,0.00
2013-1-8,61.3,51.4,42.3,32.0,32.0,32.0,16,13,11,30.93,30.78,7,2,9,0.00
2013-1-9,62.8,53.0,47.1,59.0,32.7,32.0,90,20,11,30.93,30.63,14,4,20,0.00
2013-1-10,63.9,42.4,32.5,64.4,39.9,32.0,98,55,24,30.72,30.58,19,12,24,0.00
2013-1-11,37.2,33.1,30.0,32.0,32.0,32.0,49,35,18,30.81,30.69,20,8,24,0.00
2013-1-12,42.4,32.5,26.4,32.0,32.0,32.0,46,26,15,30.81,30.69,8,2,8,0.00
2013-1-13,42.3,30.2,22.3,32.0,32.0,32.0,40,21,16,30.81,30.69,9,2,10,0.00
2013-1-14,36.1,26.8,18.1,32.0,32.0,32.0,18,16,14,30.99,30.81,9,4,11,0.00
2013-1-15,45.5,34.5,26.1,32.0,32.0,32.0,17,16,14,31.11,30.99,11,3,15,0.00
2013-1-16,54.3,42.4,33.6,32.0,32.0,32.0,18,15,13,31.11,30.96,10,4,11,0.00
2013-1-17,60.1,46.8,35.6,32.0,32.0,32.0,17,14,12,31.02,30.93,9,4,13,0.00
2013-1-18,59.4,47.2,38.8,32.0,32.0,32.0,16,14,12,30.99,30.90,8,2,9,0.00
2013-1-19,61.0,47.6,39.0,32.0,32.0,32.0,16,14,11,31.02,30.90,8,2,8,0.00
2013-1-20,60.4,49.0,41.2,32.0,32.0,32.0,16,14,12,30.96,30.87,8,2,9,0.00
2013-1-21,63.7,50.4,41.4,32.0,32.0,32.0,16,14,11,30.93,30.84,8,2,11,0.00
2013-1-22,63.0,51.8,42.8,32.0,32.0,32.0,15,13,11,30.93,30.84,5,1,8,0.00
2013-1-23,60.6,54.5,50.2,32.0,32.0,32.0,30,14,12,30.90,30.81,10,1,11,0.00
2013-1-24,72.5,67.1,50.9,73.4,65.3,32.0,98,93,30,30.93,30.81,8,1,10,0.17
2013-1-25,70.0,68.7,66.9,69.8,68.8,66.2,98,97,94,30.93,30.72,5,0,6,0.33
2013-1-26,76.1,66.1,57.2,75.2,60.1,33.8,98,82,38,30.72,30.63,11,4,19,0.04
2013-1-27,68.2,50.2,36.9,66.2,43.5,32.0,94,59,28,30.69,30.63,18,9,24,0.04
2013-1-28,41.5,37.9,35.4,32.0,32.0,32.0,43,34,21,30.84,30.69,19,10,26,0.00
2013-1-29,56.3,45.0,37.2,32.0,32.0,32.0,41,25,12,30.87,30.78,14,6,17,0.00